| time (UTC) | temp C | wind direction | speed KPH | gust KPH | rain 1hr cm | rain 24hr cm | rain mn cm | humidity % | barometer mb |
| 20260506013358 | 12 | 90 | 4.8 | 12.9 | 0.00 | 1.04 | 0.00 | 99 | 1009.4 |
| 20260506012355 | 12 | 292 | 4.8 | 9.7 | 0.00 | 1.04 | 0.00 | 99 | 1009.3 |
| 20260506011352 | 12 | 135 | 1.6 | 4.8 | 0.00 | 1.04 | 0.00 | 99 | 1009.3 |
| 20260506010348 | 12 | 315 | 4.8 | 9.7 | 0.00 | 1.04 | 0.00 | 99 | 1009.6 |
| 20260506005346 | 12 | 112 | 4.8 | 6.4 | 0.00 | 1.04 | 0.00 | 99 | 1009.5 |
| 20260506004342 | 12 | 135 | 3.2 | 9.7 | 0.00 | 1.04 | 0.00 | 99 | 1009.8 |
| 20260506003339 | 12 | 45 | 3.2 | 6.4 | 0.00 | 1.04 | 0.00 | 99 | 1009.9 |
| 20260506002336 | 12 | 315 | 4.8 | 6.4 | 0.00 | 1.04 | 0.00 | 99 | 1009.9 |
| 20260506001333 | 12 | 315 | 4.8 | 6.4 | 0.00 | 1.04 | 0.00 | 99 | 1010.1 |
| 20260506000330 | 12 | 315 | 1.6 | 4.8 | 0.00 | 1.04 | 0.00 | 99 | 1009.9 |
| 20260505235327 | 12 | 90 | 0.0 | 1.6 | 0.00 | 1.04 | 0.00 | 99 | 1010.1 |
| 20260505234324 | 12 | 202 | 0.0 | 3.2 | 0.00 | 1.04 | 0.00 | 99 | 1010.3 |
| 20260505233321 | 12 | 292 | 0.0 | 3.2 | 0.00 | 1.04 | 0.00 | 99 | 1010.5 |
| 20260505232317 | 12 | 315 | 1.6 | 4.8 | 0.00 | 1.04 | 0.00 | 99 | 1010.4 |
| 20260505231312 | 12 | 315 | 0.0 | 3.2 | 0.00 | 1.04 | 0.00 | 99 | 1010.4 |
| 20260505230309 | 12 | 337 | 0.0 | 3.2 | 0.00 | 1.04 | 0.00 | 99 | 1010.5 |
| 20260505225306 | 12 | 315 | 1.6 | 6.4 | 0.00 | 1.04 | 0.00 | 99 | 1010.6 |
| 20260505224405 | 12 | 0.0 | 1.6 | 0.00 | 1.04 | 0.00 | 99 | 1010.7 | |
| 20260505223259 | 12 | 0.0 | 1.6 | 0.00 | 1.04 | 0.00 | 99 | 1010.7 | |
| 20260505222256 | 12 | 67 | 0.0 | 3.2 | 0.00 | 1.04 | 0.00 | 99 | 1010.9 |
| 20260505221251 | 12 | 0.0 | 1.6 | 0.00 | 1.04 | 0.00 | 99 | 1011.0 | |
| 20260505220247 | 12 | 0.0 | 1.6 | 0.00 | 1.04 | 0.00 | 99 | 1010.7 | |
| 20260505215245 | 12 | 315 | 0.0 | 3.2 | 0.00 | 1.04 | 1.04 | 99 | 1010.9 |
| 20260505214302 | 12 | 0.0 | 1.6 | 0.00 | 1.04 | 1.04 | 99 | 1010.9 | |
| 20260505213237 | 12 | 315 | 1.6 | 4.8 | 0.00 | 1.04 | 1.04 | 99 | 1011.1 |
| 20260505212234 | 12 | 112 | 1.6 | 4.8 | 0.00 | 1.04 | 1.04 | 98 | 1011.3 |
| 20260505211230 | 12 | 128 | 1.6 | 3.2 | 0.00 | 1.04 | 1.04 | 98 | 1011.4 |
| 20260505210221 | 12 | 315 | 4.8 | 6.4 | 0.00 | 1.04 | 1.04 | 98 | 1011.3 |
| 20260505205238 | 12 | 337 | 3.2 | 6.4 | 0.00 | 1.04 | 1.04 | 98 | 1011.5 |
| 20260505204208 | 12 | 315 | 1.6 | 4.8 | 0.03 | 1.04 | 1.04 | 98 | 1011.6 |
| 20260505203157 | 12 | 315 | 1.6 | 4.8 | 0.03 | 1.04 | 1.04 | 98 | 1011.4 |
| 20260505202156 | 12 | 112 | 4.8 | 4.8 | 0.03 | 1.04 | 1.04 | 98 | 1011.5 |
| 20260505201144 | 12 | 112 | 3.2 | 6.4 | 0.03 | 1.04 | 1.04 | 98 | 1011.6 |
| 20260505200155 | 12 | 135 | 0.0 | 3.2 | 0.03 | 1.04 | 1.04 | 98 | 1011.7 |
| 20260505195144 | 12 | 0.0 | 0.0 | 0.03 | 1.04 | 1.04 | 98 | 1011.4 | |
| 20260505194119 | 12 | 0.0 | 0.0 | 0.00 | 1.02 | 1.02 | 98 | 1011.4 | |
| 20260505193110 | 12 | 112 | 4.8 | 9.7 | 0.00 | 1.02 | 1.02 | 98 | 1011.4 |
| 20260505192248 | 12 | 135 | 1.6 | 4.8 | 0.00 | 1.02 | 1.02 | 98 | 1011.1 |
| 20260505191055 | 12 | 112 | 1.6 | 4.8 | 0.00 | 1.02 | 1.02 | 98 | 1011.1 |
| 20260505190052 | 12 | 315 | 3.2 | 6.4 | 0.00 | 1.02 | 1.02 | 99 | 1011.0 |
| 20260505185048 | 12 | 112 | 3.2 | 6.4 | 0.00 | 1.02 | 1.02 | 99 | 1011.1 |
| 20260505184044 | 12 | 0 | 3.2 | 4.8 | 0.00 | 1.02 | 1.02 | 99 | 1011.2 |
| 20260505183123 | 12 | 0 | 0.0 | 3.2 | 0.00 | 1.02 | 1.02 | 99 | 1011.1 |
| 20260505182033 | 12 | 315 | 4.8 | 9.7 | 0.00 | 1.02 | 1.02 | 99 | 1011.0 |
| 20260505181029 | 12 | 315 | 3.2 | 9.7 | 0.00 | 1.02 | 1.02 | 99 | 1011.2 |
| 20260505180024 | 12 | 315 | 4.8 | 9.7 | 0.00 | 1.02 | 1.02 | 99 | 1011.0 |
| 20260505175020 | 12 | 112 | 6.4 | 9.7 | 0.00 | 1.02 | 1.02 | 99 | 1010.9 |
| 20260505174017 | 12 | 315 | 4.8 | 9.7 | 0.00 | 1.02 | 1.02 | 99 | 1010.9 |
| 20260505173011 | 12 | 315 | 9.7 | 14.5 | 0.00 | 1.02 | 1.02 | 99 | 1011.1 |
| 20260505172050 | 12 | 337 | 9.7 | 17.7 | 0.00 | 1.02 | 1.02 | 98 | 1011.1 |
| 20260505171006 | 12 | 292 | 4.8 | 9.7 | 0.00 | 1.02 | 1.02 | 98 | 1011.2 |
| 20260505170458 | 12 | 315 | 3.2 | 9.7 | 0.03 | 1.02 | 1.02 | 99 | 1010.9 |
| 20260505165456 | 12 | 315 | 4.8 | 6.4 | 0.03 | 1.02 | 1.02 | 98 | 1011.1 |
| 20260505164452 | 12 | 292 | 4.8 | 9.7 | 0.03 | 1.02 | 1.02 | 98 | 1011.2 |
| 20260505163448 | 12 | 292 | 8.0 | 14.5 | 0.05 | 1.02 | 1.02 | 98 | 1011.2 |
| 20260505162446 | 12 | 315 | 4.8 | 9.7 | 0.05 | 1.02 | 1.02 | 98 | 1011.2 |
| 20260505161501 | 12 | 135 | 3.2 | 9.7 | 0.05 | 1.02 | 1.02 | 98 | 1011.0 |
| 20260505160437 | 12 | 292 | 6.4 | 9.7 | 0.03 | 0.97 | 0.97 | 98 | 1011.2 |
| 20260505152417 | 13 | 45 | 6.4 | 9.7 | 0.00 | 0.94 | 0.94 | 98 | 1011.4 |
| 20260505151414 | 12 | 90 | 3.2 | 6.4 | 0.00 | 0.94 | 0.94 | 98 | 1011.4 |
| 20260505150410 | 12 | 315 | 3.2 | 6.4 | 0.03 | 0.94 | 0.94 | 98 | 1011.4 |
| 20260505140335 | 13 | 337 | 1.6 | 4.8 | 0.00 | 0.91 | 0.91 | 95 | 1011.6 |
| 20260505130254 | 13 | 315 | 1.6 | 4.8 | 0.00 | 0.91 | 0.91 | 94 | 1011.9 |
| 20260505124302 | 13 | 315 | 4.8 | 9.7 | 0.00 | 0.91 | 0.91 | 94 | 1011.6 |
| 20260505123236 | 12 | 315 | 3.2 | 4.8 | 0.03 | 0.91 | 0.91 | 94 | 1011.8 |
| 20260505122233 | 12 | 315 | 1.6 | 4.8 | 0.03 | 0.91 | 0.91 | 94 | 1011.8 |
| 20260505121230 | 12 | 315 | 4.8 | 9.7 | 0.05 | 0.91 | 0.91 | 95 | 1011.9 |
| 20260505120220 | 12 | 315 | 4.8 | 4.8 | 0.08 | 0.91 | 0.91 | 95 | 1011.9 |
| 20260505115237 | 12 | 315 | 4.8 | 9.7 | 0.08 | 0.91 | 0.91 | 96 | 1012.0 |
| 20260505114213 | 12 | 315 | 4.8 | 6.4 | 0.10 | 0.91 | 0.91 | 96 | 1011.9 |
| 20260505113230 | 12 | 315 | 4.8 | 4.8 | 0.10 | 0.89 | 0.89 | 95 | 1011.9 |
| 20260505112207 | 12 | 0.0 | 1.6 | 0.18 | 0.89 | 0.89 | 95 | 1012.1 | |
| 20260505111224 | 12 | 0.0 | 0.0 | 0.20 | 0.86 | 0.86 | 95 | 1012.0 | |
| 20260505110240 | 12 | 315 | 0.0 | 1.6 | 0.18 | 0.84 | 0.84 | 95 | 1012.3 |
| 20260505102134 | 12 | 315 | 1.6 | 4.8 | 0.10 | 0.71 | 0.71 | 94 | 1012.0 |
| 20260505101132 | 12 | 292 | 1.6 | 3.2 | 0.08 | 0.64 | 0.64 | 93 | 1011.9 |
| 20260505100127 | 12 | 315 | 0.0 | 1.6 | 0.08 | 0.64 | 0.64 | 92 | 1012.2 |
| 20260505095122 | 12 | 0.0 | 0.0 | 0.05 | 0.61 | 0.61 | 92 | 1012.2 | |
| 20260505094118 | 12 | 315 | 0.0 | 1.6 | 0.05 | 0.61 | 0.61 | 92 | 1012.2 |
| 20260505093109 | 12 | 315 | 1.6 | 3.2 | 0.03 | 0.58 | 0.58 | 92 | 1012.2 |
| 20260505092126 | 12 | 315 | 3.2 | 4.8 | 0.03 | 0.58 | 0.58 | 91 | 1012.2 |
| 20260505091102 | 12 | 315 | 0.0 | 3.2 | 0.00 | 0.56 | 0.56 | 91 | 1011.9 |
| 20260505090058 | 12 | 315 | 4.8 | 6.4 | 0.00 | 0.56 | 0.56 | 91 | 1012.0 |
| 20260505085056 | 12 | 315 | 3.2 | 6.4 | 0.00 | 0.56 | 0.56 | 93 | 1012.0 |
| 20260505084045 | 12 | 337 | 3.2 | 6.4 | 0.00 | 0.56 | 0.56 | 94 | 1011.8 |
| 20260505083041 | 12 | 315 | 4.8 | 6.4 | 0.03 | 0.56 | 0.56 | 95 | 1011.5 |
| 20260505082031 | 11 | 315 | 9.7 | 12.9 | 0.03 | 0.56 | 0.56 | 95 | 1011.9 |
| 20260505081025 | 12 | 315 | 6.4 | 12.9 | 0.05 | 0.56 | 0.56 | 96 | 1011.7 |
| 20260505080022 | 12 | 315 | 1.6 | 4.8 | 0.13 | 0.56 | 0.56 | 97 | 1011.8 |
| 20260505075020 | 12 | 315 | 6.4 | 9.7 | 0.13 | 0.56 | 0.56 | 97 | 1011.6 |
| 20260505074017 | 12 | 315 | 4.8 | 9.7 | 0.23 | 0.56 | 0.56 | 97 | 1011.5 |
| 20260505073032 | 12 | 315 | 8.0 | 12.9 | 0.23 | 0.53 | 0.53 | 97 | 1011.6 |
| 20260505072009 | 12 | 315 | 3.2 | 6.4 | 0.30 | 0.53 | 0.53 | 96 | 1011.8 |
| 20260505071008 | 12 | 292 | 0.0 | 4.8 | 0.36 | 0.51 | 0.51 | 96 | 1011.2 |
| 20260505070002 | 12 | 292 | 4.8 | 6.4 | 0.36 | 0.41 | 0.41 | 96 | 1011.4 |
| 20260505064958 | 12 | 292 | 0.0 | 3.2 | 0.30 | 0.36 | 0.36 | 95 | 1011.5 |
| 20260505063955 | 12 | 0.0 | 0.0 | 0.30 | 0.30 | 0.30 | 95 | 1011.7 | |
| 20260505062946 | 12 | 0.0 | 0.0 | 0.23 | 0.23 | 0.23 | 94 | 1011.5 | |
| 20260505061944 | 12 | 0.0 | 1.6 | 0.18 | 0.18 | 0.18 | 93 | 1011.9 | |
| 20260505060934 | 12 | 0.0 | 0.0 | 0.10 | 0.10 | 0.10 | 91 | 1011.7 | |
| 20260505055932 | 12 | 292 | 0.0 | 1.6 | 0.05 | 0.05 | 0.05 | 89 | 1011.6 |
| 20260505054924 | 13 | 292 | 0.0 | 1.6 | 0.03 | 0.03 | 0.03 | 86 | 1011.5 |
| 20260505053921 | 13 | 292 | 0.0 | 1.6 | 0.00 | 0.00 | 0.00 | 82 | 1011.5 |
| 20260505052919 | 13 | 315 | 0.0 | 1.6 | 0.00 | 0.00 | 0.00 | 78 | 1011.1 |
| 20260505051909 | 14 | 0.0 | 1.6 | 0.00 | 0.00 | 0.00 | 75 | 1011.1 | |
| 20260505050906 | 15 | 0.0 | 1.6 | 0.00 | 0.00 | 0.00 | 73 | 1011.0 | |
| 20260505040838 | 14 | 0.0 | 0.0 | 0.00 | 0.00 | 0.00 | 74 | 1011.1 | |
| 20260505035855 | 14 | 0.0 | 0.0 | 0.00 | 0.00 | 0.00 | 74 | 1010.9 | |
| 20260505034851 | 14 | 0.0 | 0.0 | 0.00 | 0.00 | 0.00 | 73 | 1010.9 | |
| 20260505033842 | 15 | 0.0 | 0.0 | 0.00 | 0.00 | 0.00 | 71 | 1011.1 | |
| 20260505032817 | 15 | 0.0 | 0.0 | 0.00 | 0.00 | 0.00 | 71 | 1011.2 | |
| 20260505031814 | 15 | 0.0 | 0.0 | 0.00 | 0.00 | 0.00 | 70 | 1011.2 | |
| 20260505030810 | 15 | 112 | 0.0 | 1.6 | 0.00 | 0.00 | 0.00 | 70 | 1011.6 |
| 20260505025806 | 15 | 0.0 | 0.0 | 0.00 | 0.00 | 0.00 | 70 | 1011.4 | |
| 20260505024756 | 15 | 0.0 | 0.0 | 0.00 | 0.00 | 0.00 | 71 | 1011.6 | |
| 20260505023753 | 15 | 0.0 | 0.0 | 0.00 | 0.00 | 0.00 | 71 | 1011.7 | |
| 20260505022749 | 15 | 0.0 | 0.0 | 0.00 | 0.00 | 0.00 | 70 | 1011.8 | |
| 20260505021746 | 15 | 0.0 | 0.0 | 0.00 | 0.00 | 0.00 | 68 | 1011.9 | |
| 20260505020742 | 15 | 0.0 | 0.0 | 0.00 | 0.00 | 0.00 | 67 | 1011.8 | |
| 20260505015734 | 15 | 292 | 0.0 | 1.6 | 0.00 | 0.00 | 0.00 | 66 | 1011.8 |
| 20260505014730 | 15 | 0.0 | 0.0 | 0.00 | 0.00 | 0.00 | 64 | 1012.1 | |
| 20260505013725 | 15 | 0.0 | 0.0 | 0.00 | 0.00 | 0.00 | 64 | 1012.3 |